Regional Weather Roundup
Issued by NWS

Home | Current Version | Previous Version | Text Only | Print | Product List | Glossary On
Versions: 1 2 3 4 5 6 7 8 9 10 11 12 13 14 15 16 17 18 19 20 21 22 23 24 25 26 27 28 29 30 31 32 33 34 35 36 37 38 39 40 41 42 43 44 45 46 47 48 49 50
000
ASUS43 KLSX 170507
RWRMO

WEATHER SUMMARY FOR MISSOURI
NATIONAL WEATHER SERVICE SPRINGFIELD MO
1200 AM CDT THU AUG 17 2017

NOTE: "FAIR" INDICATES FEW OR NO CLOUDS BELOW 12,000 FEET WITH NO
       SIGNIFICANT WEATHER AND/OR OBSTRUCTIONS TO VISIBILITY.
       CURRENT SKY AND/OR WEATHER CONDITIONS ARE NOT AVAILABLE FOR
       CHILLICOTHE AND FARMINGTON.

MOZ001>031-035>038-043-044-053-054-170600-
...NORTHERN AND WESTERN MISSOURI...

CITY           SKY/WX    TMP DP  RH WIND       PRES   REMARKS
KANSAS CTY INT CLOUDY    71  70  96 S9        29.84R
KANSAS C DTWN  CLOUDY    71  69  93 S9        29.83S
LEE`S SUMMIT   CLOUDY    69  68  96 SW15      29.86S
ST JOSEPH      MOCLDY    72  69  90 W10       29.82R FOG
CHILLICOTHE      N/A     72  72 100 S5        29.82R
KIRKSVILLE     CLOUDY    74  72  93 S12       29.81F

$$
MOZ066>068-077>081-088>096-101>105-170600-
...SOUTHWEST MISSOURI...

CITY           SKY/WX    TMP DP  RH WIND       PRES   REMARKS
SPRINGFIELD    LGT RAIN  68  67  96 SW10      29.96F
JOPLIN         LGT RAIN  69  68  96 S14       29.93F
BRANSON        LGT RAIN  68  64  88 NW15G30   30.04R

$$
MOZ032>034-039>042-045>050-055>058-069>072-170600-
...CENTRAL MISSOURI...

CITY           SKY/WX    TMP DP  RH WIND       PRES   REMARKS
COLUMBIA       LGT RAIN  69  68  96 S14       29.85F
JEFFERSON CITY LGT RAIN  70  69  97 SE8       29.86R
ROLLA          HVY RAIN  66  66 100 S14       29.97R FOG
SEDALIA        LGT RAIN  69  69 100 SW9       29.87R
WHITEMAN AFB   CLOUDY    68  68 100 SW14      29.83F
WARRENSBURG    CLOUDY    68  64  88 S8        29.83S
OSAGE BEACH    LGT RAIN  68  67  96 SE12      29.89F

$$
MOZ051-052-059>065-170600-
...EAST CENTRAL MISSOURI...

CITY           SKY/WX    TMP DP  RH WIND       PRES   REMARKS
ST LOUIS INTL  CLOUDY    72  70  93 SW14      29.91R
SPIRIT OF STL  LGT RAIN  71  70  96 SW6       29.90R
ST CHARLES     RAIN      71  70  96 SW12      29.89R

$$
MOZ072>076-082>087-097>100-106>115-170600-
...SOUTH CENTRAL AND SOUTHEAST MISSOURI...

CITY           SKY/WX    TMP DP  RH WIND       PRES   REMARKS
CAPE GIRARDEAU PTCLDY    72  70  93 E5        29.93F
FARMINGTON     CLOUDY    70  68  93 S6        29.93F
POPLAR BLUFF   CLEAR     75  75 100 CALM      29.92F
WEST PLAINS    CLOUDY    80  72  76 S8        29.97R

$$



USA.gov is the U.S. government's official web portal to all federal, state and local government web resources and services.